Regional Weather Roundup
Issued by NWS Cleveland, OH

Home | Current Version | Previous Version | Text Only | Print | Product List | Glossary Off
Versions: 1 2 3 4 5 6 7 8 9 10 11 12 13 14 15 16 17 18 19 20 21 22 23 24 25 26 27 28 29 30 31 32 33 34 35 36 37 38 39 40 41 42 43 44 45 46 47 48 49 50

623
ASUS41 KCLE 030710
RWRCLE
OHIO REGIONAL WEATHER ROUNDUP
NATIONAL WEATHER SERVICE WILMINGTON, OH
300 AM EDT TUE MAY 03 2016

NOTE: "FAIR" INDICATES FEW OR NO CLOUDS BELOW 12,000 FEET WITH NO
SIGNIFICANT WEATHER AND/OR OBSTRUCTIONS TO VISIBILITY.

OHZ001>008-015>018-024>027-034-035-043-044-030800-
   NORTHWEST OHIO

CITY           SKY/WX    TMP DP  RH WIND       PRES   REMARKS
DEFIANCE       LGT RAIN  49  47  93 N5        29.96F FOG
FINDLAY        CLOUDY    49  42  77 NE5       29.93F
TOLEDO EXPRESS CLOUDY    47  46  97 CALM      29.95F
TOLEDO EXEC    CLOUDY    49  45  86 CALM      29.96F
LIMA           CLOUDY    48  45  89 N5        29.93F
$$

OHZ009>014-019>023-028>033-038-089-030800-
   NORTHEAST OHIO

CITY           SKY/WX    TMP DP  RH WIND       PRES   REMARKS
CLE-HOPKINS    CLOUDY    46  43  89 CALM      29.97F
CLE-LAKEFRONT  CLOUDY    47  43  86 N5        29.94F
CUY CO. ARPT   NOT AVBL
LORAIN-ELYRIA  CLOUDY    45  42  89 N3        29.95F
ASHTABULA      FOG       41  40  96 N3        29.94F VSB 1/4
AKRON-CANTON   FAIR      43  40  89 N7        29.91F
WOOSTER        CLOUDY    43  40  89 N7        29.92F
MANSFIELD      CLOUDY    43  42  97 N6        29.92F
YOUNGSTOWN     FAIR      37  36  96 NW6       29.91F
$$

OHZ042-051>053-060>062-070>072-077>081-030800-
  SOUTHWEST OHIO

CITY           SKY/WX    TMP DP  RH WIND       PRES   REMARKS
CINC-COVINGTON CLOUDY    54  52  94 N7        29.90F
CINC-LUNKEN    CLOUDY    55  52  89 NE7       29.91F
HAMILTON       CLOUDY    54  51  90 N3        29.93S
DAYTON         CLOUDY    50  45  83 N7        29.93F
WRIGHT-PAT AFB CLOUDY    50  47  87 N7        29.92F
DAYTON GENERAL CLOUDY    51  46  83 NE7       29.91F
WILMINGTON     CLOUDY    51  48  89 N8        29.91S
$$

OHZ036-037-039>041-045>050-054>059-063>069-073>076-082>088-030800-
  CENTRAL AND SOUTHEAST OHIO

CITY           SKY/WX    TMP DP  RH WIND       PRES   REMARKS
COLUMBUS       CLOUDY    49  44  83 NE6       29.91F
OSU AIRPORT    CLOUDY    49  44  83 N6        29.91F
BOLTON FIELD   CLOUDY    50  46  87 N5        29.91F
RICKENBACK AFB CLOUDY    50  46  84 N6        29.90F
NEWARK         CLOUDY    51  44  77 N5        29.90F
MARION         CLOUDY    45  43  93 N6        29.93F
LANCASTER      CLOUDY    51  47  86 N7        29.90F
ZANESVILLE     CLOUDY    52  46  80 N5        29.89F
NEW PHILLY     CLOUDY    47  43  86 N6        29.91F
$$




USA.gov is the U.S. government's official web portal to all federal, state and local government web resources and services.